GW4730 Weather Reports


time (UTC)temp
C
wind
direction
speed
KPH
gust
KPH
rain 1hr
cm
rain 24hr
cm
rain mn
cm
humidity
%
barometer
mb
20260504050328 -17 0.0 0.0 0.00 0.00 0.00 1017.0
20260504045825 -17 0.0 0.0 0.00 0.00 0.00 1017.1
20260504045320 -17 0.0 0.0 0.00 0.00 0.00 1017.3
20260504044817 -17 0.0 0.0 0.00 0.00 0.00 1017.2
20260504044314 -17 0.0 0.0 0.00 0.00 0.00 1017.1
20260504043811 -17 0.0 0.0 0.00 0.00 0.00 1017.1
20260504043308 -17 0.0 0.0 0.00 0.00 0.00 1017.2
20260504042806 -17 0.0 0.0 0.00 0.00 0.00 1017.0
20260504042304 -17 0.0 0.0 0.00 0.00 0.00 1017.1
20260504041759 -17 0.0 0.0 0.00 0.00 0.00 1017.1
20260504041255 -17 0.0 0.0 0.00 0.00 0.00 1017.3
20260504040751 -17 0.0 0.0 0.00 0.00 0.00 1017.1
20260504040249 -17 0.0 0.0 0.00 0.00 0.00 1017.0
20260504035744 3 62 0.0 0.0 0.00 0.00 0.00 87 1017.0
20260504035242 3 62 0.0 0.0 0.00 0.00 0.00 87 1017.0
20260504034739 2 69 0.0 0.0 0.00 0.00 0.00 89 1017.0
20260504034236 2 69 0.0 0.0 0.00 0.00 0.00 89 1017.0
20260504033734 2 56 0.0 0.0 0.00 0.00 0.00 89 1016.7
20260504033231 2 17 0.0 0.0 0.00 0.00 0.00 88 1016.9
20260504032728 3 8 0.0 0.0 0.00 0.00 0.00 87 1017.0
20260504032225 3 8 0.0 0.0 0.00 0.00 0.00 87 1017.0
20260504031722 -17 0.0 0.0 0.00 0.00 0.00 1016.5
20260504031219 -17 0.0 0.0 0.00 0.00 0.00 1016.7
20260504030715 -17 0.0 0.0 0.00 0.00 0.00 1017.0
20260504030212 5 75 0.0 0.0 0.00 0.00 0.00 80 1017.1
20260504025709 5 75 0.0 0.0 0.00 0.00 0.00 80 1016.7
20260504025205 5 76 0.0 0.0 0.00 0.00 0.00 81 1016.7
20260504024703 5 79 0.0 0.0 0.00 0.00 0.00 80 1016.6
20260504024159 5 92 0.0 0.0 0.00 0.00 0.00 79 1016.2
20260504023656 4 95 0.0 0.0 0.00 0.00 0.00 80 1016.7
20260504023152 4 80 0.0 1.6 0.00 0.00 0.00 81 1016.4
20260504022648 4 90 0.0 0.0 0.00 0.00 0.00 81 1016.4
20260504022144 4 111 0.0 0.0 0.00 0.00 0.00 81 1016.2
20260504021642 4 171 0.0 0.0 0.00 0.00 0.00 81 1016.2
20260504021139 5 130 0.0 3.2 0.00 0.00 0.00 80 1016.2
20260504020636 5 1 0.0 0.0 0.00 0.00 0.00 76 1016.0
20260504020132 5 20 0.0 0.0 0.00 0.00 0.00 78 1016.2
20260504015628 5 53 0.0 0.0 0.00 0.00 0.00 78 1016.3
20260504015125 5 53 0.0 0.0 0.00 0.00 0.00 77 1016.1
20260504014621 5 65 0.0 0.0 0.00 0.00 0.00 76 1016.2
20260504014118 5 25 0.0 0.0 0.00 0.00 0.00 75 1016.2
20260504013615 6 358 0.0 0.0 0.00 0.00 0.00 74 1016.2
20260504013112 6 0 0.0 0.0 0.00 0.00 0.00 73 1016.1
20260504012610 6 78 0.0 0.0 0.00 0.00 0.00 71 1016.0
20260504012108 6 79 0.0 1.6 0.00 0.00 0.00 73 1016.1
20260504011604 6 78 0.0 0.0 0.00 0.00 0.00 73 1015.8
20260504011100 6 78 0.0 0.0 0.00 0.00 0.00 71 1016.0
20260504010556 7 78 0.0 1.6 0.00 0.00 0.00 66 1016.0
20260504010052 7 86 1.6 3.2 0.00 0.00 0.00 65 1015.8
20260504005549 7 132 0.0 0.0 0.00 0.00 0.00 66 1015.8
20260504005046 7 132 0.0 0.0 0.00 0.00 0.00 63 1015.7
20260504004544 8 132 0.0 0.0 0.00 0.00 0.00 64 1015.8
20260504004041 8 133 0.0 0.0 0.00 0.00 0.00 63 1015.8
20260504003537 9 133 0.0 0.0 0.00 0.00 0.00 62 1015.8
20260504003034 10 133 0.0 0.0 0.00 0.00 0.00 61 1015.8
20260504002531 10 137 0.0 0.0 0.00 0.00 0.00 51 1015.8
20260504002028 11 147 0.0 0.0 0.00 0.00 0.00 46 1015.9
20260504001526 11 147 0.0 0.0 0.00 0.00 0.00 44 1015.5
20260504001022 12 155 0.0 0.0 0.00 0.00 0.00 43 1015.8
20260504000520 12 199 0.0 1.6 0.00 0.00 0.00 46 1015.7
20260504000017 13 227 0.0 3.2 0.00 0.00 0.00 40 1015.7
20260503235515 13 228 0.0 3.2 0.00 0.00 0.00 35 1015.7
20260503235011 14 231 1.6 1.6 0.00 0.00 0.00 36 1015.5
20260503234509 14 253 0.0 1.6 0.00 0.00 0.00 35 1015.5
20260503234007 15 230 3.2 3.2 0.00 0.00 0.00 34 1015.6
20260503233503 15 234 3.2 9.7 0.00 0.00 0.00 35 1015.3
20260503232959 15 251 1.6 3.2 0.00 0.00 0.00 34 1015.4
20260503232456 16 205 1.6 3.2 0.00 0.00 0.00 35 1015.4
20260503231954 16 235 1.6 4.8 0.00 0.00 0.00 32 1015.4
20260503231451 16 246 1.6 3.2 0.00 0.00 0.00 32 1015.3
20260503230948 16 277 4.8 4.8 0.00 0.00 0.00 31 1015.5
20260503230444 16 244 4.8 6.4 0.00 0.00 0.00 34 1015.4
20260503225942 16 301 6.4 11.3 0.00 0.00 0.00 33 1015.4
20260503225439 16 247 6.4 11.3 0.00 0.00 0.00 31 1015.3
20260503224934 16 216 4.8 14.5 0.00 0.00 0.00 32 1015.3
20260503224431 16 293 9.7 20.9 0.00 0.00 0.00 31 1015.2
20260503223929 16 249 8.0 12.9 0.00 0.00 0.00 29 1015.0
20260503223427 16 200 6.4 11.3 0.00 0.00 0.00 34 1015.2
20260503222922 16 271 9.7 14.5 0.00 0.00 0.00 30 1015.2
20260503222421 16 266 9.7 14.5 0.00 0.00 0.00 31 1015.1
20260503221919 16 247 8.0 11.3 0.00 0.00 0.00 31 1015.4
20260503221417 16 210 12.9 16.1 0.00 0.00 0.00 31 1015.3
20260503220913 16 228 4.8 16.1 0.00 0.00 0.00 35 1015.5
20260503220410 16 255 6.4 14.5 0.00 0.00 0.00 31 1015.5
20260503215907 16 256 12.9 17.7 0.00 0.00 0.00 31 1015.6
20260503215404 16 253 12.9 22.5 0.00 0.00 0.00 31 1015.3
20260503214901 16 230 22.5 27.4 0.00 0.00 0.00 30 1015.4
20260503214358 16 248 12.9 16.1 0.00 0.00 0.00 30 1015.5
20260503213856 17 280 11.3 22.5 0.00 0.00 0.00 32 1015.4
20260503213354 16 90 3.2 17.7 0.00 0.00 0.00 33 1015.2
20260503212850 16 209 8.0 17.7 0.00 0.00 0.00 31 1015.2
20260503212348 16 241 8.0 25.7 0.00 0.00 0.00 31 1015.2
20260503211845 16 326 6.4 14.5 0.00 0.00 0.00 28 1015.5
20260503211342 16 275 12.9 14.5 0.00 0.00 0.00 33 1015.4
20260503210837 16 226 14.5 24.1 0.00 0.00 0.00 29 1015.4
20260503210334 16 205 6.4 24.1 0.00 0.00 0.00 31 1015.4
20260503205829 16 242 14.5 20.9 0.00 0.00 0.00 32 1015.2
20260503205326 16 253 11.3 16.1 0.00 0.00 0.00 31 1015.4
20260503204823 16 281 17.7 24.1 0.00 0.00 0.00 31 1015.3
20260503204320 16 249 12.9 16.1 0.00 0.00 0.00 30 1015.5
20260503203817 16 228 12.9 24.1 0.00 0.00 0.00 32 1015.3
20260503203315 16 319 11.3 22.5 0.00 0.00 0.00 33 1015.5
20260503202811 16 240 3.2 14.5 0.00 0.00 0.00 33 1015.4
20260503202310 16 244 11.3 24.1 0.00 0.00 0.00 37 1015.7
20260503201807 16 251 14.5 20.9 0.00 0.00 0.00 32 1015.7
20260503201304 16 27 9.7 17.7 0.00 0.00 0.00 32 1015.8
20260503200802 16 313 8.0 16.1 0.00 0.00 0.00 36 1015.7
20260503200257 15 298 9.7 14.5 0.00 0.00 0.00 32 1015.8
20260503195755 16 284 9.7 12.9 0.00 0.00 0.00 33 1015.9
20260503195251 16 281 8.0 11.3 0.00 0.00 0.00 31 1016.0
20260503194749 16 287 17.7 20.9 0.00 0.00 0.00 30 1016.2
20260503194244 16 269 6.4 6.4 0.00 0.00 0.00 34 1016.2
20260503193741 16 109 4.8 6.4 0.00 0.00 0.00 30 1016.1
20260503193237 16 236 4.8 12.9 0.00 0.00 0.00 30 1016.2
20260503192733 16 265 6.4 12.9 0.00 0.00 0.00 32 1016.3
20260503192228 15 305 8.0 12.9 0.00 0.00 0.00 34 1016.4
20260503191725 15 232 11.3 17.7 0.00 0.00 0.00 32 1016.4
20260503191222 15 274 12.9 22.5 0.00 0.00 0.00 31 1016.5
20260503190719 15 354 6.4 12.9 0.00 0.00 0.00 31 1016.9
20260503190215 15 216 8.0 11.3 0.00 0.00 0.00 31 1016.6
20260503185713 15 334 12.9 17.7 0.00 0.00 0.00 31 1016.9
20260503185208 15 238 8.0 25.7 0.00 0.00 0.00 36 1016.9
20260503184703 15 247 8.0 12.9 0.00 0.00 0.00 37 1016.9
20260503184200 15 264 19.3 27.4 0.00 0.00 0.00 33 1017.2
20260503183656 15 235 14.5 20.9 0.00 0.00 0.00 34 1017.3
20260503183153 15 270 8.0 12.9 0.00 0.00 0.00 34 1017.0
20260503182651 15 200 6.4 12.9 0.00 0.00 0.00 35 1017.1
20260503182150 15 288 16.1 20.9 0.00 0.00 0.00 35 1017.1
20260503181646 13 294 9.7 11.3 0.00 0.00 0.00 35 1017.2
20260503181143 13 241 4.8 12.9 0.00 0.00 0.00 40 1017.1
20260503180640 14 248 6.4 17.7 0.00 0.00 0.00 40 1017.5
20260503180138 14 286 14.5 22.5 0.00 0.00 0.00 35 1017.3
20260503175635 14 290 16.1 17.7 0.00 0.00 0.00 32 1017.4
20260503175132 13 268 9.7 11.3 0.00 0.00 0.00 40 1017.3
20260503174628 14 292 14.5 20.9 0.00 0.00 0.00 37 1017.3
20260503174126 13 241 4.8 17.7 0.00 0.00 0.00 43 1017.7
20260503173620 13 267 9.7 12.9 0.00 0.00 0.00 36 1017.7
20260503173117 13 257 9.7 12.9 0.00 0.00 0.00 39 1017.7
20260503172614 14 288 19.3 25.7 0.00 0.00 0.00 35 1017.7
20260503172112 13 358 3.2 3.2 0.00 0.00 0.00 36 1017.6
20260503171608 13 281 11.3 14.5 0.00 0.00 0.00 38 1017.7
20260503171105 13 256 14.5 24.1 0.00 0.00 0.00 39 1017.9
20260503170601 13 237 14.5 20.9 0.00 0.00 0.00 39 1018.1
20260503150954 10 318 9.7 11.3 0.00 0.00 0.00 47 1019.1
20260503150450 -17 0.0 0.0 0.00 0.00 0.00 1019.1
20260503131343 -17 0.0 0.0 0.00 0.00 0.00 1019.1
20260503130841 -17 0.0 0.0 0.00 0.00 0.00 1019.1
20260503130338 -17 0.0 0.0 0.00 0.00 0.00 1019.2
20260503110732 -17 0.0 0.0 0.00 0.00 0.00 1018.5
20260503110229 -17 0.0 0.0 0.00 0.00 0.00 1018.4
20260503100155 0 38 0.0 0.0 0.00 0.00 0.00 96 1017.5
20260503090115 0 71 0.0 0.0 0.00 0.00 0.00 93 1017.1
20260503081550 3 24 0.0 0.0 0.00 0.00 0.00 83 1017.0
20260503081048 3 182 0.0 0.0 0.00 0.00 0.00 82 1017.1
20260503080544 3 193 0.0 0.0 0.00 0.00 0.00 81 1017.0
20260503072517 3 268 0.0 0.0 0.00 0.00 0.00 85 1016.7
20260503072015 3 231 0.0 0.0 0.00 0.00 0.00 85 1016.6